Volver al catálogo

DELTA 1 R/B(2)

ActivoHEO
NORAD 2643·ROCKET BODY·🇺🇸 United States

Lanzado Jan 11, 1967 desde Cape Canaveral Space Force Station

Loading…

Próximos Pases (próximas 24 horas)

TLE

ActualizadoSource: Space-Track

Época: Sep 14, 2026, 00:44 UTC

1 02643U 67001D   26257.03122698  .00010598  00000-0  21313-2 0  9997
2 02643  25.6522 128.9118 5898753 131.9332 296.1139  4.19164811760050

Sigue DELTA 1 R/B(2) en tiempo real con AllMySat

Download on the App Store